Location: Newark
(21.1200°N, 73.4000°E)
Time: 20:49:56
(UTC+00:00)

Vanguard 1 Rocket - Pass Details

Date: 20 January 2020
Orbit: 650 x 4226 km, 34.3° (Epoch: 22 February)

Event Time Altitude Azimuth Distance (km) Brightness Sun altitude
Rises 13:43:22 0° 294° (WNW) 7,841 13.0 -12.9°
Reaches altitude 10° 13:48:40 10° 289° (WNW) 7,096 12.8 -14.1°
Maximum altitude 14:12:25 48° 224° (SW) 4,863 11.4 -19.4°
Drops below altitude 10° 14:32:35 10° 155° (SSE) 6,047 11.4 -24.0°
Sets 14:36:45 0° 149° (SSE) 6,657 11.6 -24.9°
